Alexandria, LA

7:28 AM CDT on May 28, 2017 (GMT -0500)
Alexandria International

Weather History for KAEX - February, 2011

Change the Weather History Date:

Wednesday, February 9, 2011

  Actual Average Record
Temperature  
Mean Temperature 39 °F 51 °F  
Max Temperature 47 °F 62 °F 84 °F (1957)
Min Temperature 30 °F 40 °F 15 °F (1933)
Degree Days  
Heating Degree Days 26 15  
Month to date heating degree days 246 137  
Since 1 July heating degree days 1620 1428  
Moisture  
Dew Point 33 °F    
Average Humidity 78    
Maximum Humidity 92    
Minimum Humidity 64    
Precipitation  
Precipitation 0.17 in 0.15 in 2.79 in (1980)
Month to date precipitation 1.92 1.38  
Year to date precipitation 5.20 6.60  
Snow  
Snow 0.00 in - T in (1973)
Month to date snowfall 0.0  
Since 1 July snowfall 0.0  
Snow Depth 0.00 in    
Sea Level Pressure  
Sea Level Pressure 30.14 in    
Wind  
Wind Speed 10 mph (NNW)    
Max Wind Speed 20 mph    
Max Gust Speed 26 mph    
Visibility 7 miles    
Events Rain    
T = Trace of Precipitation, MM = Missing Value Source: NWS Daily Summary

Daily Weather History Graph

Daily Weather History Graph

Search for Another Location

Airport or City:

Trip Planner

Search our weather history database for the weather conditions in past years. The results will help you decide how hot, cold, wet, or windy it might be!

Date:

Astronomy

Feb. 09, 2011 Rise Set
Actual Time 6:57 AM CST 5:52 PM CST
Civil Twilight 6:31 AM CST 6:17 PM CST
Nautical Twilight 6:03 AM CST 6:45 PM CST
Astronomical Twilight 5:34 AM CST 7:14 PM CST
Moon 10:05 AM CST (2/9) 11:58 PM CST (2/9)
Length of Visible Light 11h 45m
Length of Day
10h 55m
Waxing Crescent, 35% of the Moon is Illuminated
Feb 9
Waxing Crescent
Feb 11
First Quarter
Feb 18
Full
Feb 24
Last Quarter
Mar 4
New

Hourly Weather History & Observations

Time (CST) Temp. Windchill Dew Point Humidity Pressure Visibility Wind Dir Wind Speed Gust Speed Precip Events Conditions
12:53 AM 32.0 °F - 26.1 °F 79% 30.22 in 10.0 mi Calm Calm - N/A   Clear
1:53 AM 34.0 °F 29.8 °F 27.0 °F 75% 30.22 in 10.0 mi ENE 4.6 mph - N/A   Scattered Clouds
2:53 AM 35.1 °F 31.0 °F 28.9 °F 78% 30.18 in 10.0 mi ESE 4.6 mph - N/A   Overcast
3:53 AM 37.9 °F 30.0 °F 28.0 °F 68% 30.12 in 10.0 mi East 12.7 mph - N/A   Overcast
4:53 AM 39.0 °F - 28.0 °F 65% 30.12 in 10.0 mi Calm Calm - N/A   Overcast
5:53 AM 39.0 °F - 28.9 °F 67% 30.12 in 10.0 mi Calm Calm - N/A   Overcast
6:53 AM 39.9 °F 36.7 °F 28.0 °F 63% 30.13 in 10.0 mi ENE 4.6 mph - N/A   Overcast
7:53 AM 39.9 °F 33.9 °F 30.0 °F 68% 30.11 in 10.0 mi East 9.2 mph - 0.00 in   Mostly Cloudy
8:53 AM 43.0 °F 36.0 °F 32.0 °F 65% 30.08 in 10.0 mi SE 13.8 mph - N/A   Mostly Cloudy
9:53 AM 45.0 °F 39.3 °F 34.0 °F 65% 30.06 in 10.0 mi SE 11.5 mph - 0.00 in   Overcast
10:53 AM 46.9 °F - 37.0 °F 68% 30.08 in 10.0 mi WNW 13.8 mph - 0.00 in   Overcast
11:18 AM 44.6 °F 40.7 °F 39.2 °F 81% 30.08 in 2.0 mi NW 6.9 mph - 0.00 in Rain Light Rain
11:53 AM 42.1 °F 34.9 °F 37.9 °F 85% 30.10 in 2.0 mi NW 13.8 mph - 0.02 in Rain Light Rain
12:00 PM 42.8 °F 36.6 °F 37.4 °F 81% 30.09 in 4.0 mi WNW 11.5 mph - 0.00 in Rain Light Rain
12:33 PM 41.0 °F 33.5 °F 37.4 °F 87% 30.09 in 4.0 mi NW 13.8 mph - 0.00 in Rain Light Rain
12:43 PM 41.0 °F 34.7 °F 37.4 °F 87% 30.09 in 4.0 mi NNW 10.4 mph - 0.00 in Rain Light Rain
12:53 PM 39.9 °F 32.9 °F 37.0 °F 89% 30.11 in 4.0 mi NW 11.5 mph - 0.00 in Rain Light Rain
1:18 PM 39.2 °F 31.6 °F 37.4 °F 93% 30.08 in 2.5 mi NW 12.7 mph 19.6 mph 0.00 in Rain Light Rain
1:25 PM 39.2 °F 31.6 °F 37.4 °F 93% 30.08 in 2.5 mi NNW 12.7 mph 19.6 mph 0.00 in Rain Light Rain
1:30 PM 39.2 °F 32.0 °F 37.4 °F 93% 30.08 in 3.0 mi NNW 11.5 mph 20.7 mph 0.00 in Rain Light Rain
1:46 PM 39.2 °F 31.6 °F 37.4 °F 93% 30.08 in 5.0 mi NNW 12.7 mph - 0.00 in Rain Light Rain
1:51 PM 39.2 °F 32.0 °F 37.4 °F 93% 30.08 in 4.0 mi NNW 11.5 mph - 0.00 in Rain Light Rain
1:53 PM 39.9 °F 32.9 °F 37.0 °F 89% 30.10 in 4.0 mi NNW 11.5 mph - 0.00 in Rain Light Rain
2:18 PM 39.2 °F 33.0 °F 37.4 °F 93% 30.08 in 5.0 mi NNW 9.2 mph - 0.01 in Rain Light Rain
2:53 PM 39.0 °F 33.4 °F 37.0 °F 93% 30.10 in 5.0 mi NNW 8.1 mph - 0.02 in Rain Light Rain
3:53 PM 37.9 °F 30.9 °F 35.1 °F 89% 30.11 in 4.0 mi North 10.4 mph - 0.05 in Rain Rain
4:53 PM 37.0 °F 31.6 °F 34.0 °F 89% 30.13 in 6.0 mi North 6.9 mph - 0.05 in Rain Light Rain
5:00 PM 37.4 °F 31.4 °F 33.8 °F 87% 30.11 in 4.0 mi North 8.1 mph - 0.00 in Rain Light Rain
5:12 PM 35.6 °F 29.2 °F 33.8 °F 93% 30.12 in 4.0 mi North 8.1 mph - 0.02 in Rain Light Rain
5:31 PM 35.6 °F 28.6 °F 33.8 °F 93% 30.14 in 4.0 mi NNW 9.2 mph - 0.02 in Rain Light Rain
5:39 PM 35.6 °F 28.6 °F 33.8 °F 93% 30.13 in 4.0 mi NNW 9.2 mph - 0.03 in Rain Light Rain
5:51 PM 35.6 °F 28.0 °F 33.8 °F 93% 30.14 in 4.0 mi NNW 10.4 mph - 0.03 in   Overcast
5:53 PM 36.0 °F 29.6 °F 34.0 °F 93% 30.16 in 4.0 mi NNW 8.1 mph - 0.03 in   Overcast
6:01 PM 35.6 °F 29.9 °F 33.8 °F 93% 30.14 in 9.0 mi NNW 6.9 mph - N/A   Overcast
6:53 PM 36.0 °F 28.5 °F 33.1 °F 89% 30.18 in 10.0 mi NNW 10.4 mph - 0.00 in   Overcast
7:49 PM 35.6 °F 26.6 °F 32.0 °F 87% 30.19 in 10.0 mi NNW 13.8 mph - N/A   Overcast
7:53 PM 35.1 °F 25.9 °F 32.0 °F 89% 30.21 in 10.0 mi NNW 13.8 mph - N/A   Overcast
8:22 PM 35.6 °F 26.2 °F 30.2 °F 81% 30.20 in 10.0 mi NNW 15.0 mph 21.9 mph N/A   Overcast
8:36 PM 33.8 °F 24.3 °F 32.0 °F 93% 30.20 in 10.0 mi North 13.8 mph 23.0 mph 0.00 in Rain Light Rain
8:53 PM 34.0 °F 24.2 °F 30.9 °F 89% 30.23 in 10.0 mi NNW 15.0 mph - 0.00 in   Overcast
9:53 PM 33.1 °F 23.0 °F 30.0 °F 89% 30.24 in 10.0 mi North 15.0 mph 23.0 mph N/A   Overcast
10:53 PM 33.1 °F 23.4 °F 28.9 °F 85% 30.26 in 10.0 mi NNW 13.8 mph 23.0 mph N/A   Overcast
11:53 PM 32.0 °F 20.8 °F 28.0 °F 85% 30.26 in 10.0 mi North 17.3 mph 21.9 mph N/A   Overcast